This demonstration page uses our WeatherBlox Daily Observations layout. Learn more.

39.01783, -85.05884

Hourly Observations for June 25, 2019

Temp ( °F °C ) Dew Point ( °F °C ) Humidity (%) Winds ( mph kmh ) Pressure ( in mb ) Visibility ( mi km ) Precip ( " mm )
12:43 am 00:43 Cloudy with Light Rain 69 20.6 66 18.9 90 90 WNW 9 15 29.83 1010 7 11.265408 0.02 0.508
12:52 am 00:52 Cloudy 69 20.6 65 18.3 87 87 SW 3 6 29.8 1009 10 16.09344 0.02 0.508
12:59 am 00:59 Mostly Cloudy 68 20 65 18.3 90 90 WSW 5 7 29.83 1010 10 16.09344 0 0
1:34 am 01:34 Partly Cloudy 68 20 66 18.9 93 93 SW 10 17 29.85 1011 10 16.09344 0 0
1:52 am 01:52 Mostly Clear 68 20 65 18.3 90 90 WSW 7 11 29.83 1010 10 16.09344 0 0
2:52 am 02:52 Mostly Clear 67 19.4 64 17.8 91 91 WSW 6 9 29.85 1011 10 16.09344 0 0
3:52 am 03:52 Mostly Clear 66 18.9 63 17.2 90 90 W 5 7 29.85 1011 10 16.09344 0 0
4:52 am 04:52 Mostly Clear 65 18.3 62 16.7 90 90 WSW 6 9 29.85 1011 10 16.09344 0 0
5:52 am 05:52 Mostly Cloudy 64 17.8 61 16.1 90 90 WSW 5 7 29.88 1012 10 16.09344 0 0
6:52 am 06:52 Mostly Cloudy 65 18.3 62 16.7 90 90 WSW 5 7 29.91 1013 10 16.09344 0 0
7:52 am 07:52 Partly Cloudy 66 18.9 62 16.7 87 87 WSW 5 7 29.94 1014 10 16.09344 0 0
8:52 am 08:52 Partly Cloudy 69 20.6 63 17.2 81 81 W 8 13 29.97 1015 10 16.09344 0 0
9:52 am 09:52 Mostly Sunny 72 22.2 63 17.2 73 73 W 8 13 29.97 1015 10 16.09344 0 0
10:52 am 10:52 Mostly Sunny 75 23.9 63 17.2 66 66 WSW 8 13 29.97 1015 10 16.09344 0 0
11:52 am 11:52 Mostly Sunny 78 25.6 64 17.8 62 62 W 8 13 30 1016 10 16.09344 0 0
12:52 pm 12:52 Mostly Sunny 78 25.6 62 16.7 58 58 W 8 13 30 1016 10 16.09344 0 0
1:52 pm 13:52 Partly Cloudy 81 27.2 60 15.6 49 49 SW 9 15 30 1016 10 16.09344 0 0
2:52 pm 14:52 Partly Cloudy 81 27.2 59 15 47 47 W 8 13 30 1016 10 16.09344 0 0
3:52 pm 15:52 Partly Cloudy 82 27.8 58 14.4 44 44 SW 10 17 29.97 1015 10 16.09344 0 0
4:52 pm 16:52 Mostly Sunny 82 27.8 59 15 46 46 SW 7 11 29.97 1015 10 16.09344 0 0
5:52 pm 17:52 Mostly Cloudy 80 26.7 58 14.4 47 47 SW 12 19 29.97 1015 10 16.09344 0 0
6:52 pm 18:52 Partly Cloudy 81 27.2 59 15 47 47 SW 8 13 29.97 1015 10 16.09344 0 0
7:52 pm 19:52 Partly Cloudy 80 26.7 59 15 49 49 SW 8 13 29.97 1015 10 16.09344 0 0
8:52 pm 20:52 Mostly Sunny 75 23.9 61 16.1 62 62 SW 5 7 29.97 1015 10 16.09344 0 0
9:52 pm 21:52 Mostly Clear 73 22.8 61 16.1 66 66 SW 5 7 29.97 1015 10 16.09344 0 0
10:52 pm 22:52 Mostly Clear 69 20.6 61 16.1 76 76 SSW 6 9 30 1016 10 16.09344 0 0
11:52 pm 23:52 Clear 70 21.1 61 16.1 73 73 SSW 7 11 30 1016 10 16.09344 0 0

Powered by AerisWeather